| time (UTC) | temp F | wind direction | speed MPH | gust MPH | rain 1hr in | rain 24hr in | rain mn in | humidity % | barometer mb |
| 20260503013021 | 57 | 200 | 0.0 | 0.0 | 0.00 | 0.01 | 0.01 | 84 | 1005.8 |
| 20260503011512 | 57 | 227 | 0.0 | 0.0 | 0.00 | 0.01 | 0.01 | 83 | 1005.8 |
| 20260503010010 | 57 | 227 | 0.0 | 0.0 | 0.00 | 0.01 | 0.01 | 82 | 1005.7 |
| 20260503004510 | 57 | 224 | 0.0 | 0.0 | 0.00 | 0.01 | 0.01 | 81 | 1005.7 |
| 20260503003010 | 58 | 233 | 0.0 | 0.0 | 0.00 | 0.01 | 0.01 | 80 | 1005.7 |
| 20260503001509 | 58 | 215 | 0.0 | 0.0 | 0.00 | 0.01 | 0.01 | 81 | 1005.7 |
| 20260503000013 | 59 | 236 | 0.0 | 0.0 | 0.00 | 0.01 | 0.01 | 79 | 1005.7 |
| 20260502234508 | 61 | 246 | 0.0 | 0.0 | 0.00 | 0.01 | 0.01 | 75 | 1005.6 |
| 20260502233008 | 62 | 228 | 0.0 | 0.0 | 0.00 | 0.01 | 0.01 | 75 | 1005.6 |
| 20260502231507 | 63 | 181 | 0.0 | 0.0 | 0.00 | 0.01 | 0.01 | 77 | 1005.5 |
| 20260502230008 | 63 | 240 | 0.0 | 0.0 | 0.00 | 0.01 | 0.01 | 73 | 1005.6 |
| 20260502224507 | 64 | 283 | 0.0 | 0.0 | 0.00 | 0.01 | 0.01 | 73 | 1005.8 |
| 20260502223004 | 66 | 194 | 0.0 | 0.0 | 0.00 | 0.01 | 0.01 | 70 | 1005.8 |
| 20260502221502 | 66 | 195 | 0.0 | 1.0 | 0.00 | 0.01 | 0.01 | 70 | 1005.9 |
| 20260502220106 | 67 | 266 | 0.0 | 0.0 | 0.00 | 0.01 | 0.01 | 69 | 1006.0 |
| 20260502214608 | 68 | 220 | 0.0 | 0.0 | 0.00 | 0.01 | 0.01 | 67 | 1006.0 |
| 20260502213058 | 68 | 186 | 0.0 | 0.0 | 0.00 | 0.01 | 0.01 | 72 | 1006.0 |
| 20260502211606 | 67 | 204 | 0.0 | 2.0 | 0.00 | 0.01 | 0.01 | 72 | 1006.0 |
| 20260502210054 | 67 | 213 | 0.0 | 4.0 | 0.00 | 0.01 | 0.01 | 72 | 1006.1 |
| 20260502204553 | 68 | 217 | 0.0 | 0.0 | 0.00 | 0.01 | 0.01 | 73 | 1006.2 |
| 20260502203057 | 67 | 190 | 0.0 | 0.0 | 0.00 | 0.01 | 0.01 | 74 | 1006.4 |
| 20260502201550 | 67 | 242 | 0.0 | 0.0 | 0.00 | 0.01 | 0.01 | 75 | 1006.4 |
| 20260502200045 | 66 | 162 | 0.0 | 0.0 | 0.00 | 0.01 | 0.01 | 78 | 1006.6 |
| 20260502194542 | 64 | 268 | 0.0 | 0.0 | 0.00 | 0.01 | 0.01 | 78 | 1006.7 |
| 20260502193040 | 63 | 217 | 0.0 | 0.0 | 0.00 | 0.01 | 0.01 | 80 | 1007.0 |
| 20260502191538 | 62 | 291 | 0.0 | 0.0 | 0.00 | 0.01 | 0.01 | 87 | 1007.1 |
| 20260502190030 | 60 | 190 | 0.0 | 0.0 | 0.00 | 0.01 | 0.01 | 90 | 1007.1 |
| 20260502184528 | 57 | 225 | 0.0 | 1.0 | 0.00 | 0.01 | 0.01 | 94 | 1007.1 |
| 20260502183024 | 56 | 174 | 0.0 | 1.0 | 0.00 | 0.01 | 0.01 | 95 | 1007.1 |
| 20260502181528 | 55 | 180 | 0.0 | 0.0 | 0.00 | 0.01 | 0.01 | 97 | 1007.2 |
| 20260502163009 | 52 | 198 | 1.0 | 4.0 | 0.00 | 0.01 | 0.01 | 97 | 1007.6 |
| 20260502161508 | 51 | 184 | 0.0 | 0.0 | 0.00 | 0.01 | 0.01 | 97 | 1007.5 |
| 20260502151612 | 51 | 247 | 0.0 | 0.0 | 0.00 | 0.01 | 0.01 | 97 | 1006.9 |
| 20260502150109 | 51 | 178 | 0.0 | 0.0 | 0.00 | 0.01 | 0.01 | 97 | 1007.0 |
| 20260502123049 | 50 | 41 | 0.0 | 0.0 | 0.00 | 0.01 | 0.01 | 96 | 1006.1 |
| 20260502121551 | 50 | 111 | 0.0 | 0.0 | 0.01 | 0.01 | 0.01 | 96 | 1006.1 |
| 20260502114553 | 50 | 337 | 0.0 | 0.0 | 0.01 | 0.01 | 0.01 | 96 | 1006.3 |
| 20260502113045 | 50 | 336 | 0.0 | 0.0 | 0.01 | 0.01 | 0.01 | 96 | 1006.2 |
| 20260502111547 | 50 | 37 | 0.0 | 0.0 | 0.00 | 0.00 | 0.00 | 96 | 1006.2 |
| 20260502110043 | 50 | 37 | 0.0 | 0.0 | 0.00 | 0.00 | 0.00 | 96 | 1006.4 |
| 20260502104548 | 50 | 203 | 0.0 | 0.0 | 0.00 | 0.00 | 0.00 | 96 | 1006.4 |
| 20260502103041 | 50 | 202 | 0.0 | 0.0 | 0.00 | 0.00 | 0.00 | 96 | 1006.5 |
| 20260502101540 | 50 | 217 | 0.0 | 0.0 | 0.00 | 0.00 | 0.00 | 96 | 1006.4 |
| 20260502091534 | 50 | 217 | 0.0 | 0.0 | 0.00 | 0.00 | 0.00 | 96 | 1006.8 |
| 20260502070022 | 51 | 217 | 0.0 | 0.0 | 0.00 | 0.00 | 0.00 | 95 | 1007.5 |
| 20260502064618 | 51 | 217 | 0.0 | 0.0 | 0.00 | 0.00 | 0.00 | 95 | 1007.5 |
| 20260502063018 | 51 | 355 | 0.0 | 0.0 | 0.00 | 0.00 | 0.00 | 94 | 1007.3 |
| 20260502061517 | 51 | 241 | 0.0 | 0.0 | 0.00 | 0.00 | 0.00 | 94 | 1007.6 |
| 20260502060016 | 51 | 241 | 0.0 | 0.0 | 0.00 | 0.00 | 0.00 | 94 | 1007.7 |
| 20260502054519 | 51 | 241 | 0.0 | 0.0 | 0.00 | 0.00 | 0.00 | 94 | 1007.8 |
| 20260502053016 | 51 | 241 | 0.0 | 0.0 | 0.00 | 0.00 | 0.00 | 94 | 1007.8 |
| 20260502051531 | 51 | 241 | 0.0 | 0.0 | 0.00 | 0.00 | 0.00 | 94 | 1007.9 |
| 20260502050015 | 51 | 241 | 0.0 | 0.0 | 0.00 | 0.00 | 0.00 | 93 | 1008.0 |
| 20260502044515 | 51 | 241 | 0.0 | 0.0 | 0.00 | 0.00 | 0.00 | 93 | 1007.9 |
| 20260502043014 | 51 | 241 | 0.0 | 0.0 | 0.00 | 0.00 | 0.00 | 92 | 1007.9 |
| 20260502041514 | 52 | 241 | 0.0 | 0.0 | 0.00 | 0.00 | 0.00 | 91 | 1007.8 |
| 20260502040014 | 52 | 241 | 0.0 | 0.0 | 0.00 | 0.00 | 0.00 | 90 | 1007.7 |
| 20260502034519 | 53 | 242 | 0.0 | 0.0 | 0.00 | 0.00 | 0.00 | 89 | 1007.5 |
| 20260502033016 | 54 | 205 | 0.0 | 0.0 | 0.00 | 0.00 | 0.00 | 88 | 1007.5 |
| 20260502031512 | 55 | 238 | 0.0 | 0.0 | 0.00 | 0.00 | 0.00 | 87 | 1007.4 |
| 20260502030011 | 56 | 238 | 0.0 | 0.0 | 0.00 | 0.00 | 0.00 | 85 | 1007.2 |
| 20260502024510 | 57 | 207 | 0.0 | 0.0 | 0.00 | 0.00 | 0.00 | 83 | 1007.2 |
| 20260502023010 | 59 | 232 | 0.0 | 0.0 | 0.00 | 0.00 | 0.00 | 81 | 1007.2 |
| 20260502021509 | 60 | 236 | 0.0 | 0.0 | 0.00 | 0.00 | 0.00 | 79 | 1007.2 |
| 20260502020008 | 61 | 263 | 0.0 | 0.0 | 0.00 | 0.00 | 0.00 | 77 | 1007.3 |
| 20260502014510 | 63 | 226 | 0.0 | 0.0 | 0.00 | 0.00 | 0.00 | 74 | 1007.4 |